Regional Weather Roundup
Issued by NWS

Current Version | Previous Version | Text Only | Print | Product List | Glossary On
Versions: 1 2 3 4 5 6 7 8 9 10 11 12 13 14 15 16 17 18 19 20 21 22 23 24 25 26 27 28
000
ASUS42 KFFC 311803
RWRGA
WEATHER ROUNDUP FOR GEORGIA
NATIONAL WEATHER SERVICE PEACHTREE CITY GA
200 PM EDT FRI OCT 31 2014

NOTE: "FAIR" INDICATES FEW OR NO CLOUDS BELOW 12,000 FEET WITH NO
SIGNIFICANT WEATHER AND/OR OBSTRUCTIONS TO VISIBILITY.

* = USE WITH CAUTION. THE STATIONS MARKED WITH AN ASTERISK MAY NOT
REPORT WEATHER SUCH AS PRECIPITATION, FOG, OR THUNDER AND ARE NOT
QUALITY CONTROLLED BY NWS.

THE REMARK "TC" DENOTES TEMPERATURE READING IN DEGREES CELSIUS.

GAZ001>058-311900-
NORTH GEORGIA

CITY           SKY/WX    TMP DP  RH WIND       PRES   REMARKS
ATLANTA        PTSUNNY   60  43  53 NW13      29.91F
6HR MIN TEMP:  45; 6HR MAX TEMP:  63;

ATHENS         SUNNY     66  41  40 CALM      29.86F
6HR MIN TEMP:  39; 6HR MAX TEMP:  66;

CHAMBLEE       CLOUDY    60  40  47 W10       29.90F
6HR MIN TEMP:  40; 6HR MAX TEMP:  62;

PEACHTREE CITY CLOUDY    61  42  49 NW10      29.92F
6HR MIN TEMP:  43; 6HR MAX TEMP:  65;

ROME           CLOUDY    61  41  47 N5        29.93F
6HR MIN TEMP:  44; 6HR MAX TEMP:  63;

WEST ATLANTA   CLOUDY    56  42  59 NW9       29.92F
6HR MIN TEMP:  44; 6HR MAX TEMP:  61;

GAINESVILLE    CLOUDY    61  37  41 NW13      29.89F
6HR MIN TEMP:  43; 6HR MAX TEMP:  62;

CARTERSVILLE   CLOUDY    57  40  52 VRB3      29.94F
6HR MIN TEMP:  42; 6HR MAX TEMP:  58;



CITY           SKY/WX    TMP DP  RH WIND       PRES   REMARKS
DALTON*        PTSUNNY   55  43  62 N8        29.93F
LAWRENCEVILLE* PTSUNNY   63  37  39 W9        29.88F
MARIETTA       CLOUDY    56  43  63 W10       29.91F
KENNESAW*      PTSUNNY   55  39  54 NW7       29.94F
$$

GAZ059>098-102>109-311900-
CENTRAL GEORGIA

CITY           SKY/WX    TMP DP  RH WIND       PRES   REMARKS
AUGUSTA-BUSH   PTSUNNY   68  43  40 SE5       29.83F
6HR MIN TEMP:  39; 6HR MAX TEMP:  69;

AUGUSTA-DANIEL MOSUNNY   68  44  42 CALM      29.84F
6HR MIN TEMP:  50; 6HR MAX TEMP:  69;

COLUMBUS       MOSUNNY   67  39  35 NW7G16    29.91F
6HR MIN TEMP:  46; 6HR MAX TEMP:  68;

MACON          SUNNY     68  40  35 W10       29.86F
6HR MIN TEMP:  40; 6HR MAX TEMP:  69;

ROBINS AFB     SUNNY     70  41  34 W10       29.86F


CITY           SKY/WX    TMP DP  RH WIND       PRES   REMARKS
LAGRANGE*      CLOUDY    65  41  42 N9        29.93F
SYLVANIA*      MOSUNNY   74  53  47 CALM      29.84F
MILLEDGEVILLE* SUNNY     68  46  45 W5        29.86F
$$

GAZ099>101-110>166-311900-
SOUTH GEORGIA

CITY           SKY/WX    TMP DP  RH WIND       PRES   REMARKS
SAVANNAH       MOSUNNY   73  46  38 VRB7      29.83F
6HR MIN TEMP:  52; 6HR MAX TEMP:  74;

VALDOSTA       SUNNY     72  37  28 VRB7      29.87F
6HR MIN TEMP:  44; 6HR MAX TEMP:  72;

ALMA           MOSUNNY   71  42  35 NW10      29.84F
6HR MIN TEMP:  50; 6HR MAX TEMP:  72;

ST SIMONS      MOSUNNY   73  47  39 VRB6      29.82F
6HR MIN TEMP:  58; 6HR MAX TEMP:  74;

FT STEWART     MOSUNNY   70  46  43 W3        29.82F
ALBANY         SUNNY     69  43  38 W9        29.91F
HUNTER AFB     PTSUNNY   69  46  43 W7        29.81F
MOODY AFB      SUNNY     71  38  31 NW8       29.86F
BRUNSWICK      MOSUNNY   73  46  38 NW6       29.83F


CITY           SKY/WX    TMP DP  RH WIND       PRES   REMARKS
BAINBRIDGE*    SUNNY     73  43  33 NW6G16    29.91F
MOULTRIE*      SUNNY     70  41  35 NW9       29.89F
VIDALIA*       SUNNY     70  46  43 W5        29.84F
WAYCROSS*      PTSUNNY   74  53  47 NW8       29.84F
DOUGLAS*       SUNNY     72  37  28 NW8       29.87F
$$



USA.gov is the U.S. government's official web portal to all federal, state and local government web resources and services.